| time (UTC) | temp F | wind direction | speed knots | gust knots | rain 1hr in | rain 24hr in | rain mn in | humidity % | barometer mb |
| 20260905214517 | 71 | 0.0 | 2.6 | 0.00 | 0.00 | 0.00 | 42 | 1015.8 | |
| 20260905213017 | 71 | 113 | 0.9 | 4.3 | 0.00 | 0.00 | 0.00 | 44 | 1015.8 |
| 20260905211517 | 70 | 113 | 0.9 | 5.2 | 0.00 | 0.00 | 0.00 | 45 | 1015.7 |
| 20260905210017 | 69 | 0.0 | 2.6 | 0.00 | 0.00 | 0.00 | 46 | 1015.7 | |
| 20260905204517 | 69 | 135 | 0.9 | 4.3 | 0.00 | 0.00 | 0.00 | 51 | 1015.8 |
| 20260905203017 | 69 | 0.0 | 1.7 | 0.00 | 0.00 | 0.00 | 53 | 1015.7 | |
| 20260905201517 | 70 | 0.0 | 1.7 | 0.00 | 0.00 | 0.00 | 54 | 1015.9 | |
| 20260905200017 | 70 | 0.0 | 1.7 | 0.00 | 0.00 | 0.00 | 53 | 1015.8 | |
| 20260905194517 | 70 | 0.0 | 1.7 | 0.00 | 0.00 | 0.00 | 53 | 1015.8 | |
| 20260905193017 | 71 | 0.0 | 1.7 | 0.00 | 0.00 | 0.00 | 51 | 1015.8 | |
| 20260905191517 | 72 | 135 | 0.9 | 7.8 | 0.00 | 0.00 | 0.00 | 43 | 1015.7 |
| 20260905190017 | 72 | 135 | 0.9 | 5.2 | 0.00 | 0.00 | 0.00 | 43 | 1015.9 |
| 20260905184517 | 73 | 135 | 0.9 | 5.2 | 0.00 | 0.00 | 0.00 | 44 | 1016.0 |
| 20260905183037 | 72 | 180 | 0.9 | 5.2 | 0.00 | 0.00 | 0.00 | 45 | 1015.8 |
| 20260905181517 | 71 | 113 | 0.9 | 3.5 | 0.00 | 0.00 | 0.00 | 48 | 1015.9 |
| 20260905180017 | 72 | 113 | 0.9 | 5.2 | 0.00 | 0.00 | 0.00 | 47 | 1016.0 |
| 20260905174517 | 72 | 113 | 1.7 | 4.3 | 0.00 | 0.00 | 0.00 | 49 | 1016.0 |
| 20260905173017 | 72 | 113 | 0.9 | 4.3 | 0.00 | 0.00 | 0.00 | 49 | 1016.0 |
| 20260905171517 | 71 | 113 | 0.9 | 4.3 | 0.00 | 0.00 | 0.00 | 51 | 1015.9 |
| 20260905170017 | 71 | 113 | 0.9 | 2.6 | 0.00 | 0.01 | 0.00 | 52 | 1015.7 |
| 20260905164557 | 68 | 113 | 0.9 | 2.6 | 0.00 | 0.01 | 0.00 | 53 | 1015.6 |
| 20260905163017 | 67 | 90 | 0.9 | 2.6 | 0.00 | 0.01 | 0.00 | 57 | 1015.6 |
| 20260905161517 | 66 | 90 | 0.9 | 3.5 | 0.00 | 0.01 | 0.00 | 59 | 1015.6 |
| 20260905160017 | 65 | 0.0 | 3.5 | 0.00 | 0.01 | 0.00 | 63 | 1015.6 | |
| 20260905154517 | 64 | 68 | 0.9 | 3.5 | 0.00 | 0.01 | 0.00 | 61 | 1015.4 |
| 20260905153017 | 64 | 0.0 | 1.7 | 0.00 | 0.01 | 0.00 | 62 | 1015.7 | |
| 20260905151517 | 63 | 0.0 | 1.7 | 0.00 | 0.02 | 0.00 | 65 | 1015.6 | |
| 20260905150017 | 61 | 0.0 | 1.7 | 0.00 | 0.02 | 0.00 | 66 | 1015.5 | |
| 20260905144517 | 60 | 0.0 | 1.7 | 0.00 | 0.02 | 0.00 | 67 | 1015.2 | |
| 20260905143017 | 58 | 0.0 | 0.0 | 0.00 | 0.03 | 0.00 | 69 | 1015.2 | |
| 20260905141516 | 56 | 0.0 | 0.0 | 0.00 | 0.03 | 0.00 | 71 | 1015.1 | |
| 20260905140016 | 55 | 0.0 | 0.0 | 0.00 | 0.04 | 0.00 | 71 | 1014.8 | |
| 20260905134536 | 55 | 0.0 | 0.0 | 0.00 | 0.04 | 0.00 | 71 | 1014.8 | |
| 20260905133017 | 55 | 0.0 | 0.0 | 0.00 | 0.04 | 0.00 | 71 | 1014.7 | |
| 20260905131516 | 55 | 0.0 | 0.0 | 0.00 | 0.04 | 0.00 | 71 | 1014.7 | |
| 20260905130016 | 56 | 0.0 | 0.0 | 0.00 | 0.04 | 0.00 | 70 | 1014.7 | |
| 20260905124517 | 56 | 0.0 | 0.0 | 0.00 | 0.05 | 0.00 | 70 | 1014.8 | |
| 20260905123016 | 55 | 0.0 | 0.0 | 0.00 | 0.05 | 0.00 | 71 | 1014.7 | |
| 20260905121517 | 56 | 0.0 | 0.0 | 0.00 | 0.05 | 0.00 | 71 | 1014.7 | |
| 20260905120016 | 56 | 0.0 | 0.0 | 0.00 | 0.05 | 0.00 | 71 | 1014.9 | |
| 20260905114556 | 56 | 0.0 | 0.9 | 0.00 | 0.05 | 0.00 | 71 | 1014.8 | |
| 20260905113016 | 56 | 0.0 | 1.7 | 0.00 | 0.05 | 0.00 | 71 | 1014.8 | |
| 20260905111516 | 56 | 0.0 | 0.9 | 0.00 | 0.06 | 0.00 | 71 | 1015.1 | |
| 20260905110016 | 56 | 0.0 | 0.9 | 0.00 | 0.07 | 0.00 | 71 | 1015.1 | |
| 20260905104517 | 56 | 0.0 | 0.9 | 0.00 | 0.08 | 0.00 | 73 | 1015.1 | |
| 20260905103017 | 56 | 0.0 | 0.9 | 0.00 | 0.08 | 0.00 | 74 | 1015.1 | |
| 20260905101517 | 55 | 0.0 | 1.7 | 0.00 | 0.10 | 0.00 | 76 | 1015.2 | |
| 20260905100016 | 55 | 0.0 | 0.0 | 0.00 | 0.11 | 0.00 | 77 | 1015.1 | |
| 20260905094516 | 55 | 0.0 | 0.9 | 0.00 | 0.14 | 0.00 | 79 | 1015.2 | |
| 20260905093016 | 55 | 0.0 | 0.9 | 0.00 | 0.17 | 0.00 | 80 | 1015.2 | |
| 20260905091517 | 55 | 0.0 | 0.0 | 0.00 | 0.20 | 0.00 | 80 | 1015.2 | |
| 20260905090016 | 55 | 0.0 | 1.7 | 0.00 | 0.25 | 0.00 | 82 | 1015.2 | |
| 20260905084517 | 55 | 0.0 | 2.6 | 0.00 | 0.28 | 0.00 | 82 | 1015.3 | |
| 20260905083016 | 55 | 0.0 | 0.9 | 0.00 | 0.33 | 0.00 | 82 | 1015.2 | |
| 20260905081516 | 55 | 0.0 | 0.9 | 0.00 | 0.34 | 0.00 | 81 | 1015.1 | |
| 20260905080037 | 55 | 0.0 | 0.9 | 0.00 | 0.36 | 0.00 | 81 | 1014.9 | |
| 20260905074516 | 55 | 0.0 | 0.9 | 0.00 | 0.38 | 0.00 | 82 | 1014.8 | |
| 20260905073016 | 55 | 0.0 | 0.0 | 0.00 | 0.38 | 0.00 | 82 | 1014.6 | |
| 20260905071517 | 55 | 0.0 | 0.9 | 0.00 | 0.39 | 0.00 | 82 | 1014.6 | |
| 20260905070036 | 56 | 0.0 | 2.6 | 0.00 | 0.41 | 0.41 | 82 | 1014.5 | |
| 20260905064515 | 56 | 0.0 | 1.7 | 0.00 | 0.43 | 0.41 | 82 | 1014.5 | |
| 20260905063015 | 56 | 0.0 | 1.7 | 0.00 | 0.44 | 0.41 | 81 | 1014.5 | |
| 20260905061535 | 56 | 0.0 | 0.9 | 0.00 | 0.46 | 0.41 | 80 | 1014.4 | |
| 20260905060015 | 57 | 0.0 | 0.9 | 0.00 | 0.50 | 0.41 | 79 | 1014.6 | |
| 20260905054515 | 57 | 0.0 | 0.0 | 0.00 | 0.54 | 0.41 | 76 | 1014.7 | |
| 20260905053016 | 58 | 0.0 | 0.0 | 0.00 | 0.57 | 0.41 | 74 | 1014.7 | |
| 20260905051516 | 58 | 0.0 | 0.0 | 0.00 | 0.63 | 0.41 | 72 | 1014.7 | |
| 20260905050015 | 59 | 0.0 | 0.0 | 0.00 | 0.65 | 0.41 | 71 | 1014.9 | |
| 20260905044515 | 59 | 0.0 | 0.0 | 0.00 | 0.66 | 0.41 | 70 | 1014.8 | |
| 20260905043015 | 59 | 0.0 | 0.0 | 0.00 | 0.69 | 0.41 | 69 | 1014.5 | |
| 20260905041535 | 60 | 0.0 | 0.0 | 0.00 | 0.71 | 0.41 | 67 | 1014.6 | |
| 20260905040015 | 60 | 0.0 | 0.0 | 0.00 | 0.71 | 0.41 | 64 | 1014.4 | |
| 20260905034515 | 60 | 0.0 | 0.0 | 0.00 | 0.72 | 0.41 | 63 | 1014.1 | |
| 20260905033035 | 61 | 0.0 | 0.0 | 0.00 | 0.73 | 0.41 | 63 | 1014.1 | |
| 20260905031515 | 61 | 0.0 | 0.0 | 0.00 | 0.78 | 0.41 | 63 | 1013.9 | |
| 20260905030015 | 62 | 0.0 | 0.0 | 0.00 | 0.78 | 0.41 | 64 | 1014.0 | |
| 20260905024517 | 63 | 0.0 | 0.0 | 0.00 | 0.78 | 0.41 | 63 | 1013.9 | |
| 20260905023017 | 63 | 0.0 | 0.0 | 0.00 | 0.78 | 0.41 | 62 | 1014.1 | |
| 20260905021517 | 64 | 0.0 | 0.0 | 0.00 | 0.78 | 0.41 | 60 | 1014.1 | |
| 20260905020017 | 65 | 0.0 | 0.0 | 0.00 | 0.78 | 0.41 | 59 | 1014.2 | |
| 20260905014517 | 65 | 0.0 | 0.9 | 0.00 | 0.78 | 0.41 | 59 | 1014.2 | |
| 20260905013017 | 65 | 0.0 | 0.9 | 0.00 | 0.78 | 0.41 | 57 | 1014.2 | |
| 20260905011517 | 66 | 0.0 | 1.7 | 0.00 | 0.78 | 0.41 | 56 | 1014.1 | |
| 20260905010017 | 66 | 0.0 | 2.6 | 0.00 | 0.78 | 0.41 | 56 | 1013.9 | |
| 20260905004517 | 66 | 0.0 | 3.5 | 0.00 | 0.78 | 0.41 | 54 | 1014.0 | |
| 20260905003017 | 66 | 0.0 | 1.7 | 0.00 | 0.78 | 0.41 | 53 | 1014.1 | |
| 20260905001517 | 66 | 135 | 0.9 | 3.5 | 0.00 | 0.78 | 0.41 | 54 | 1014.1 |
| 20260905000017 | 66 | 113 | 0.9 | 3.5 | 0.00 | 0.78 | 0.41 | 54 | 1014.2 |
| 20260904234537 | 67 | 113 | 0.9 | 3.5 | 0.00 | 0.78 | 0.41 | 53 | 1014.5 |
| 20260904233017 | 67 | 0.0 | 3.5 | 0.00 | 0.78 | 0.41 | 57 | 1014.7 | |
| 20260904231517 | 67 | 0.0 | 1.7 | 0.00 | 0.78 | 0.41 | 56 | 1014.7 | |
| 20260904230017 | 67 | 0.0 | 2.6 | 0.00 | 0.78 | 0.41 | 61 | 1014.7 | |
| 20260904224517 | 67 | 113 | 0.9 | 5.2 | 0.00 | 0.78 | 0.41 | 59 | 1014.9 |
| 20260904223017 | 66 | 113 | 0.9 | 3.5 | 0.00 | 0.78 | 0.41 | 62 | 1015.0 |
| 20260904221537 | 66 | 113 | 1.7 | 4.3 | 0.00 | 0.78 | 0.41 | 62 | 1015.1 |
| 20260904220017 | 67 | 0.0 | 1.7 | 0.00 | 0.78 | 0.41 | 62 | 1015.2 |